Location: Martz Observatory
(42.0083°N, 79.0667°W)
Time: 19:40:22
(UTC-04:00)

Daily predictions for brighter satellites

Satellite Brightness Start Highest point End
(mag) Time Altitude Azimuth Time Altitude Azimuth Time Altitude Azimuth
Cosmos 1954 Rocket 4.5 20:59:34 10° N 21:04:34 45° ENE 21:09:35 10° SE
Cosmos 2056 Rocket 3.9 21:02:16 10° SSW 21:07:23 68° WNW 21:12:30 10° NNE
Atlas Centaur 2 3.3 21:08:24 10° SSW 21:09:33 11° SSW 21:10:41 10° S
Cosmos 1356 Rocket 4.3 21:06:08 10° SSW 21:10:18 56° WNW 21:14:33 10° N
COS B Rocket 4.2 21:07:22 10° NNE 21:10:48 28° E 21:13:53 10° SE
Meteor 2-6 Rocket 4.4 21:05:43 10° N 21:11:41 80° E 21:17:29 10° SSE
Meteor 2-10 Rocket 4.4 21:08:36 10° NNW 21:14:18 60° W 21:19:49 10° S
CZ-4 DEB 2.7 21:11:26 10° SSE 21:14:36 83° ENE 21:17:46 10° N
Cosmos 1833 Rocket 4.3 21:10:35 10° N 21:14:39 20° NE 21:18:42 10° E
COSMOS 2406 4.3 21:13:35 10° NW 21:19:00 45° WSW 21:24:24 10° S
Cosmos 1844 Rocket 3.0 21:13:28 10° SSW 21:19:07 77° WNW 21:24:47 10° NNE
Cosmos 1825 2.7 21:16:23 10° SSE 21:19:56 38° E 21:23:30 10° NNE
Cosmos 1939 Rocket 3.1 21:16:44 10° SSE 21:20:29 49° ENE 21:24:18 10° N
GPS 2-05 Rocket1 4.0 21:17:47 10° WSW 21:21:04 29° S 21:24:07 11° ESE
Cosmos 2278 Rocket 2.3 21:15:47 10° S 21:21:17 55° ESE 21:26:50 10° NNE
Cosmos 1674 Rocket 3.8 21:18:39 10° NNW 21:23:06 75° W 21:27:30 10° S
SL-27 R/B 4.0 21:20:05 10° NW 21:23:27 36° WSW 21:26:45 10° S
Cosmos 1844 3.8 21:21:39 10° SSW 21:27:25 88° WNW 21:33:16 10° NNE
ALOS 3.8 21:23:51 10° SSW 21:28:11 37° W 21:32:31 10° NNW
Okean 2 Rocket 3.7 21:28:42 10° SSE 21:32:45 37° E 21:36:49 10° NNE
SJ-11-01 4.4 21:30:20 10° S 21:35:04 81° WSW 21:39:51 10° NNW
Envisat 3.0 21:32:32 10° SSE 21:37:34 70° ENE 21:42:38 10° N
USA 186 4.2 21:35:44 10° SSW 21:38:20 23° W 21:41:02 10° NW
PSLV R/B 4.2 21:38:39 17° ESE 21:40:15 27° ENE 21:42:50 10° NNE
Cosmos 1782 Rocket 3.7 21:36:10 10° S 21:40:31 56° E 21:44:56 10° NNE
Cosmos 2082 Rocket 3.0 21:35:27 10° N 21:40:43 37° ENE 21:44:56 15° ESE
CZ-4 SHROUD 4.2 21:41:47 18° ESE 21:43:28 29° ENE 21:46:13 10° N
Nadezhda 3 Rocket 4.1 21:37:39 10° N 21:44:04 88° E 21:50:27 10° S
OAO 3 Rocket 4.3 21:41:05 10° SW 21:45:14 27° SSE 21:48:02 16° ESE
Intercosmos 25 3.8 21:43:01 15° SSE 21:45:24 31° E 21:48:15 10° NNE
Sich 1 Rocket 4.3 21:41:35 10° SSW 21:46:06 58° W 21:50:38 10° N
Cosmos 2084 4.1 21:43:53 10° SW 21:47:39 52° NW 21:51:25 10° NNE
ERS-1 Rocket 3.4 21:44:29 10° S 21:49:28 62° WSW 21:54:28 10° NNW
Cosmos 1420 Rocket 4.0 21:44:35 10° S 21:49:46 65° ESE 21:54:56 10° NNE
APEX 3.6 21:46:31 10° S 21:50:20 55° ESE 21:55:21 10° NNE
COSMOS 2487 2.8 21:48:04 10° NNW 21:51:40 68° WSW 21:54:41 14° S
DNEPR-1 R/B 3.8 21:46:49 10° NNW 21:52:16 79° NE 21:55:33 19° SE
Cosmos 1975 Rocket 3.0 21:50:32 10° N 21:54:52 76° E 21:58:28 15° SSE
Cosmos 1140 Rocket 3.4 21:50:46 10° NNW 21:55:56 85° ENE 22:00:06 16° SSE
Cosmos 2297 3.8 21:53:14 10° S 21:58:46 57° ESE 22:04:23 10° NNE
EO 1 Delta rocket 4.3 21:56:22 10° N 22:02:22 80° WNW 22:07:16 10° SSW
Terra 3.6 22:01:13 14° E 22:03:17 18° ENE 22:06:29 10° NNE
Cosmos 1378 Rocket 4.2 21:59:57 10° NNW 22:04:09 53° W 22:08:21 10° S
CZ-4B R/B 3.8 22:01:50 10° NNE 22:06:29 40° E 22:09:18 21° SSE
ISS -1.7 22:03:53 10° W 22:06:57 37° NNW 22:10:02 10° NE
Cosmos 1606 4.3 22:03:51 10° NNW 22:07:26 34° W 22:10:58 10° SSW
Cosmos 1536 Rocket 4.5 22:03:38 10° N 22:07:42 33° ENE 22:09:31 24° ESE
MetOp-B 4.1 22:04:33 17° SSE 22:08:43 80° ENE 22:14:06 10° NNW
Cosmos 1238 Rocket 3.7 22:10:05 10° NNW 22:13:19 43° W 22:17:07 10° SSW
H-2A R/B 3.2 22:11:12 20° ESE 22:13:45 29° ENE 22:18:14 10° N
Cosmos 2341 Rocket 4.3 22:07:37 10° SSW 22:13:54 70° W 22:20:10 10° N
BREEZE-M DEB (TANK) 3.9 22:12:41 10° NW 22:14:18 19° N 22:16:25 10° NE
Cosmos 1184 Rocket 4.3 22:14:49 10° SSW 22:17:56 37° WNW 22:21:06 10° N
SPOT 5 3.3 22:14:01 15° S 22:18:29 70° WSW 22:23:52 10° NNW
SL-8 Rocket 3.9 22:14:19 10° S 22:20:35 80° E 22:26:50 10° N
Abrixas 3.4 22:22:56 10° SW 22:24:56 34° SSW 22:24:56 34° SSW
USA 245 3.1 22:25:48 38° SSE 22:27:06 83° ENE 22:31:25 10° NNW
Cosmos 2369 Rocket 4.2 22:29:38 12° E 22:29:38 12° E 22:30:40 10° ENE
Gbstr 26 Del rocket 4.1 22:24:00 10° NW 22:29:02 42° NNE 22:31:42 20° E
Cosmos 1242 Rocket 3.5 22:25:42 10° NNW 22:29:13 45° W 22:31:23 21° SSW
SPOT 1/Viking Rocket 3.5 22:26:12 26° SSE 22:29:13 84° ENE 22:34:29 10° NNW
Timation 2 Rocket 4.2 22:24:19 10° NNW 22:30:11 59° WSW 22:34:07 21° S
Lacrosse 5 2.9 22:31:52 26° E 22:31:52 26° E 22:35:05 10° ENE
ARGOS 3.1 22:27:48 27° SSE 22:30:45 77° ENE 22:36:08 10° N
H-2A R/B 3.7 22:29:44 10° SSW 22:33:29 30° W 22:37:13 10° NW
YAOGAN 6 3.1 22:33:24 29° SSW 22:34:53 52° W 22:38:21 10° NNW
Cosmos 2151 Rocket 3.5 22:36:41 26° S 22:39:11 88° E 22:43:44 10° N
CZ-4C R/B 3.8 22:38:45 41° ESE 22:39:30 46° ENE 22:43:31 10° N
USA 229 DEB 3.8 22:39:27 10° NW 22:46:36 83° WSW 22:50:15 32° SSE
USA 229 3.8 22:39:33 10° NW 22:46:42 83° WSW 22:50:21 32° SSE
Cosmos 1300 Rocket 3.9 22:49:12 45° ESE 22:49:37 46° E 22:53:52 10° NNE
Cosmos 864 Rocket 4.4 22:45:50 21° S 22:50:09 89° W 22:56:22 10° N
ASTEX 1 4.1 22:46:35 10° NNE 22:51:08 35° E 22:51:33 34° E
Meteor 1-20 Rocket 4.1 22:50:14 34° S 22:52:43 71° E 22:58:13 10° NNE
Timation 1 Rocket 4.2 22:48:54 14° SSW 22:54:04 78° ESE 23:00:06 10° NNE
Okean 1 Rocket 3.4 22:56:16 47° ESE 22:56:28 47° E 23:00:47 10° NNE
Cosmos 1833 Rocket 2.8 22:53:32 10° NNW 22:59:08 69° WSW 23:01:16 38° S
Cosmos 2366 rocket 4.3 22:57:17 17° SSW 23:02:15 69° W 23:08:36 10° N
Cosmos 2278 Rocket 4.5 23:01:11 10° WSW 23:05:44 24° NW 23:10:19 10° N
Cosmos 1331 Rocket 3.8 23:05:38 37° SSW 23:07:44 87° ESE 23:12:55 10° NNE
CZ-4 R/B 4.1 23:04:32 10° N 23:09:10 63° WNW 23:11:23 29° SW
Meteor 1-25 Rocket 4.5 23:06:57 24° SSW 23:10:31 71° W 23:16:21 10° N
Okean 1-7 Rocket 3.5 23:08:27 10° N 23:12:56 67° E 23:13:10 65° ESE
Okean 1 3.2 23:10:22 10° N 23:14:27 81° W 23:14:37 78° SW
Cosmos 1110 Rocket 4.2 23:13:24 26° SSW 23:16:24 70° WNW 23:21:37 10° NNE
DMSP B5D2-2 3.9 23:14:12 10° NNE 23:19:27 80° ESE 23:20:37 55° S
Cosmos 2082 Rocket 3.4 23:19:41 10° NW 23:24:43 33° WSW 23:26:48 26° SW
Landsat 7 4.3 23:23:52 44° SW 23:24:54 52° W 23:29:35 10° NNW
ATLAS 2AS CENTAUR R/B 4.3 23:18:14 10° NNW 23:25:26 32° NE 23:30:49 16° E
Cosmos 1812 3.5 23:23:28 10° NNW 23:27:09 44° W 23:27:16 43° W
CARTOSAT-1 3.9 23:32:46 55° WSW 23:32:57 56° W 23:37:13 10° NNW
NOSS 3-1 (C) 4.0 23:26:27 10° NW 23:34:03 82° NE 23:37:01 44° SE
Genesis I 3.9 23:37:08 49° NNE 23:37:08 49° NNE 23:40:10 10° NNE
Cosmos 1000 Rocket 4.4 23:29:57 10° N 23:36:14 87° E 23:37:43 56° S
Meteor 2-4 Rocket 3.9 23:31:23 10° N 23:36:43 52° ENE 23:37:12 50° E
Terra 2.2 23:40:06 50° WSW 23:40:37 52° W 23:45:17 10° NNW
USA 234 3.1 23:35:09 10° NE 23:41:40 66° SE 23:43:56 42° SSW
BREEZE-M TANK 2.7 23:33:50 10° WNW 23:41:52 73° NNE 23:42:07 69° NE
Cosmos 2239 Rocket 4.4 23:40:40 57° S 23:42:05 81° E 23:48:25 10° N
ISS -0.2 23:41:57 10° NW 23:44:04 16° N 23:46:11 10° NNE
Cosmos 1486 Rocket 4.1 23:38:50 10° NNW 23:44:07 64° WSW 23:44:40 59° SW
Cosmos 1354 Rocket 4.0 23:39:28 10° NNW 23:44:46 70° ENE 23:45:03 68° E
Meteor 1-13 Rocket 4.5 23:42:18 10° NNW 23:48:14 68° W 23:49:25 54° SSW
Cosmos 2084 Rocket 4.4 23:48:34 10° NNW 23:51:39 40° NNE 23:51:39 40° NNE
H-2A R/B 3.1 23:51:51 34° SW 23:53:00 38° W 23:57:55 10° NNW
Cosmos 1315 Rocket 4.2 23:55:13 32° NNE 23:55:13 32° NNE 23:57:30 10° NNE
Spot 2 4.4 23:49:46 10° N 23:53:38 62° NW 23:53:38 62° NW
